Flag for U.S.A. Weather past 2 weeks in Sioux Falls, South Dakota, U.S.A.

Now
68 °F

Clear.


Feels Like: 68 °F
Forecast: 64 / 87 °F
Wind: 6 mph from Southwest

Location: Foss Field

Current Time: Aug 2, 2015 at 5:24:34 AM

Latest Report: Aug 2, 2015 at 4:56 AM


Visibility: 10 mi

Pressure: 29.73 "Hg

Humidity: 76%

Dew point: 60 °F

Location of Sioux FallsLocation

Historic Weather in Sioux Falls — Graph

°F

Sioux Falls temperature yesterday

Maximum temperature yesterday: 84 °F (at 3:56 PM)
Minimum temperature yesterday: 65 °F (at 6:56 AM)
Average temperature yesterday: 76 °F

Past Weeks' High & Low Weather Summary

 TemperatureHumidityPressure
High91 °F (Jul 24, 2:56 PM)100% (Jul 26, 2:56 AM)30.15 "Hg (Jul 26, 2:56 AM)
Low51 °F (Jul 21, 5:56 AM)31% (Jul 31, 3:56 PM)29.68 "Hg (Jul 28, 5:56 AM)
Average74 °F68%29.93 "Hg
* Reported Jul 18 3:56 AM — Aug 2 3:56 AM, Sioux Falls, Weather by CustomWeather, © 2015

Note: Actual official high and low records may vary slightly from our data, if they occured in-between our weather recording intervals... More about our weather records

Advertising

Sioux Falls weather history for previous 24 hours

 ConditionsComfort  
Time TempWeatherWind HumidityBarometerVisibility
3:56 AM
Sun, Aug 2
70 °FClear.10 mph71%29.74 "Hg10 mi
2:56 AM70 °FClear.8 mph73%29.75 "Hg10 mi
1:56 AM73 °FClear.9 mph66%29.78 "Hg10 mi
12:56 AM73 °FClear.7 mph71%29.79 "Hg10 mi
11:56 PM
Sat, Aug 1
75 °FClear.8 mph69%29.80 "Hg10 mi
10:56 PM75 °FPassing clouds.8 mph76%29.81 "Hg10 mi
9:56 PM76 °FPassing clouds.13 mph74%29.81 "Hg10 mi
8:56 PM79 °FScattered clouds.10 mph60%29.81 "Hg10 mi
7:56 PM81 °FScattered clouds.9 mph54%29.81 "Hg10 mi
6:56 PM83 °FPassing clouds.12 mph46%29.82 "Hg10 mi
5:56 PM84 °FPassing clouds.6 mph48%29.84 "Hg10 mi
4:56 PM83 °FPassing clouds.10 mph50%29.86 "Hg10 mi
3:56 PM84 °FPassing clouds.10 mph48%29.88 "Hg10 mi
2:56 PM82 °FScattered clouds.9 mph53%29.91 "Hg10 mi
1:56 PM81 °FPartly sunny.10 mph53%29.91 "Hg10 mi
12:56 PM79 °FScattered clouds.13 mph58%29.96 "Hg10 mi
11:56 AM78 °FPartly sunny.12 mph62%29.97 "Hg10 mi
10:56 AM79 °FBroken clouds.9 mph67%29.98 "Hg10 mi
9:56 AM76 °FPartly sunny.6 mph74%29.98 "Hg10 mi
8:56 AM75 °FPartly sunny.7 mph79%29.99 "Hg10 mi
7:56 AM71 °FScattered clouds.3 mph87%30.00 "Hg10 mi
6:56 AM65 °FPassing clouds.3 mph94%29.99 "Hg10 mi
5:56 AM69 °FPassing clouds.No wind87%29.96 "Hg10 mi
Weather by CustomWeather, © 2015

See weather overviewHow to use our weather pages